Regional Weather Roundup
Issued by NWS Bismarck, ND

Home | Current Version | Previous Version | Text Only | Print | Product List | Glossary On
Versions: 1 2 3 4 5 6 7 8 9 10 11 12 13 14 15 16 17 18 19 20 21 22 23 24 25 26 27 28 29 30 31 32 33 34 35 36 37 38 39 40 41 42 43 44 45 46 47 48 49 50
000
ASUS43 KBIS 240920
RWRBIS

NWR BROADCAST TEXT
NATIONAL WEATHER SERVICE BISMARCK ND
300 AM CST MON NOV 24 2014

NOTE: "FAIR" INDICATES FEW OR NO CLOUDS BELOW 12,000 FEET WITH NO
SIGNIFICANT WEATHER AND/OR OBSTRUCTIONS TO VISIBILITY.


CITY           SKY/WX    TMP DP  RH WIND       PRES   REMARKS
WILLISTON      PTCLDY     7   3  84 W6        29.84R WCI  -3
MINOT          CLEAR      6   1  80 NW14      29.78R WCI -11
MINOT AFB      CLEAR      6   2  84 NW15      29.79R WCI -12
BISMARCK       PTCLDY    14   9  80 NW14      29.76R WCI  -1
DICKINSON      CLEAR     14  10  84 NW13      29.75R WCI   0
GARRISON         N/A      8   4  83 N13       29.77R WCI  -8
HETTINGER ARPT CLOUDY    18  14  84 NW12      29.77R WCI   5
JAMESTOWN      CLOUDY    14   7  73 N18       29.63R WCI  -3
BEACH          CLOUDY    10  10 100 W5        29.80R WCI   2
CARRINGTON     FLURRIES  10   9  92 NW22G31   29.67R WCI  -9
CROSBY         FAIR       5   1  85 W6        29.85R WCI  -6
HARVEY         FAIR       9   5  85 NW14G23   29.73R WCI  -8
HAZEN          FAIR      10   7  85 N8        29.79R WCI  -1
LINTON         FLURRIES  16  12  86 NW15G22   29.70R WCI   1
MANDAN         CLOUDY    14  10  85 NW15G22   29.74R WCI  -1
OAKES          FLURRIES  16  10  79 NW25G33   29.61S WCI  -3
RUGBY          FAIR       5   1  85 NW15      29.73R WCI -13
STANLEY        FAIR       5   3  92 NW7       29.78S WCI  -7
TIOGA          FAIR       5   5 100 W6        29.82R WCI  -6
$$

CITY           SKY/WX    TMP DP  RH WIND       PRES   REMARKS
GRAND FORKS    FLURRIES  12   7  80 N25G33    29.63R WCI  -8
GRAND FORKS AF CLOUDY    11   7  83 N23G33    29.63R WCI  -8
DEVILS LAKE    CLOUDY     9  -2  61 N21G30    29.66R WCI -11
FARGO          LGT SNOW  15  10  80 NW25G32   29.60R WCI  -4
CANDO          CLOUDY     7   3  85 N18G30    29.71R WCI -12
CAVALIER       CLOUDY    10   5  79 N24G35    29.68R WCI -10
GRAFTON        CLOUDY    10   5  79 N25G35    29.66R WCI -10
GWINNER        CLOUDY    18  10  73 N28       29.61S WCI  -1
LANGDON        CLOUDY     5   0  78 N22       29.65R WCI -16
ROLLA          PTSUNNY    5   1  85 N28G33    29.69R WCI -18
WALHALLA       FLURRIES   9   5  85 NW21G28   29.71R WCI -11
$$

CITY           SKY/WX    TMP DP  RH WIND       PRES   REMARKS
ABERDEEN       CLOUDY    18  10  71 N18G28    29.65R WCI   2
MOBRIDGE       CLOUDY    20  14  77 NW28G35   29.67R WCI   2
BUFFALO          N/A     16  12  84 NW9       29.69S WCI   4
RAPID CITY     CLEAR     25  19  78 N10       29.73R WCI  15
GLASGOW        CLOUDY    20  15  81 E12       29.79S WCI   8
SIDNEY         PTCLDY     9   3  78 CALM      29.86R
WOLF POINT     PTCLDY    11   7  84 SE3       29.84R
GLENDIVE       PTCLDY     9   0  66 NW3       29.82R
MILES CITY     CLOUDY    24  20  84 CALM      29.79S
BAKER          CLEAR     15  12  88 NW10      29.77S WCI   2
$$

CITY           SKY/WX    TMP DP  RH WIND       PRES   REMARKS
BILLINGS       CLOUDY    39  22  50 W24G31    29.81S
GREAT FALLS    CLOUDY    36  22  56 W13       29.88R
REGINA         PTCLDY     7   5  92 NW5       29.85  WCI  -2
ESTEVAN        MOCLDY     3   0  85 NW7       29.82S WCI  -9
$$



USA.gov is the U.S. government's official web portal to all federal, state and local government web resources and services.